TimeCDT,TemperatureF,Dew PointF,Humidity,Sea Level PressureIn,VisibilityMPH,Wind Direction,Wind SpeedMPH,Gust SpeedMPH,PrecipitationIn,Events,Conditions,WindDirDegrees,DateUTC
12:15 AM,51.8,46.4,82,30.11,10.0,SSW,3.5,-,N/A,,Clear,200,2013-10-08 05:15:00
12:35 AM,53.6,46.4,77,30.11,10.0,SW,4.6,-,N/A,,Clear,220,2013-10-08 05:35:00
12:55 AM,51.8,46.4,82,30.11,10.0,SSW,3.5,-,N/A,,Clear,200,2013-10-08 05:55:00
1:15 AM,51.8,46.4,82,30.11,10.0,SSW,4.6,-,N/A,,Clear,210,2013-10-08 06:15:00
1:35 AM,53.6,46.4,77,30.12,10.0,SSW,5.8,-,N/A,,Clear,210,2013-10-08 06:35:00
1:55 AM,51.8,46.4,82,30.12,10.0,Calm,Calm,-,N/A,,Clear,0,2013-10-08 06:55:00
2:15 AM,51.8,46.4,82,30.12,10.0,SSW,3.5,-,N/A,,Clear,210,2013-10-08 07:15:00
2:35 AM,51.8,46.4,82,30.12,10.0,Calm,Calm,-,N/A,,Clear,0,2013-10-08 07:35:00
2:55 AM,51.8,46.4,82,30.12,10.0,SW,3.5,-,N/A,,Clear,220,2013-10-08 07:55:00
3:15 AM,51.8,46.4,82,30.13,10.0,SSW,3.5,-,N/A,,Clear,210,2013-10-08 08:15:00
3:35 AM,51.8,46.4,82,30.13,10.0,Calm,Calm,-,N/A,,Clear,0,2013-10-08 08:35:00
3:55 AM,48.2,46.4,93,30.13,10.0,SW,4.6,-,N/A,,Clear,220,2013-10-08 08:55:00
4:15 AM,48.2,44.6,87,30.14,10.0,Calm,Calm,-,N/A,,Clear,0,2013-10-08 09:15:00
4:35 AM,48.2,46.4,93,30.14,10.0,Calm,Calm,-,N/A,,Clear,0,2013-10-08 09:35:00
4:55 AM,48.2,46.4,93,30.14,10.0,Calm,Calm,-,N/A,,Clear,0,2013-10-08 09:55:00
5:15 AM,46.4,44.6,93,30.15,10.0,SSW,3.5,-,N/A,,Clear,210,2013-10-08 10:15:00
5:35 AM,46.4,44.6,93,30.16,10.0,SSW,3.5,-,N/A,,Clear,210,2013-10-08 10:35:00
5:55 AM,44.6,42.8,93,30.16,10.0,Calm,Calm,-,N/A,,Clear,0,2013-10-08 10:55:00
6:15 AM,46.4,44.6,93,30.17,10.0,Calm,Calm,-,N/A,,Clear,0,2013-10-08 11:15:00
6:35 AM,44.6,44.6,100,30.17,10.0,South,3.5,-,N/A,,Clear,170,2013-10-08 11:35:00
6:55 AM,44.6,44.6,100,30.17,10.0,Calm,Calm,-,N/A,,Clear,0,2013-10-08 11:55:00
7:15 AM,44.6,42.8,93,30.18,10.0,Calm,Calm,-,N/A,,Clear,0,2013-10-08 12:15:00
7:55 AM,48.2,48.2,100,30.19,10.0,Calm,Calm,-,N/A,,Clear,0,2013-10-08 12:55:00
8:15 AM,51.8,48.2,88,30.19,10.0,Calm,Calm,-,N/A,,Clear,0,2013-10-08 13:15:00
8:35 AM,53.6,50.0,88,30.20,10.0,Calm,Calm,-,N/A,,Clear,0,2013-10-08 13:35:00
8:55 AM,57.2,48.2,72,30.20,10.0,SSW,4.6,-,N/A,,Clear,200,2013-10-08 13:55:00
9:15 AM,60.8,50.0,68,30.20,10.0,Calm,Calm,-,N/A,,Clear,0,2013-10-08 14:15:00
9:35 AM,62.6,48.2,59,30.20,10.0,Calm,Calm,-,N/A,,Clear,0,2013-10-08 14:35:00
9:55 AM,64.4,50.0,59,30.20,10.0,Calm,Calm,-,N/A,,Clear,0,2013-10-08 14:55:00
10:15 AM,66.2,48.2,52,30.20,10.0,Calm,Calm,-,N/A,,Clear,0,2013-10-08 15:15:00
10:35 AM,68.0,46.4,46,30.20,10.0,SSW,4.6,-,N/A,,Clear,210,2013-10-08 15:35:00
10:55 AM,69.8,48.2,46,30.20,10.0,SSW,5.8,-,N/A,,Clear,200,2013-10-08 15:55:00
11:15 AM,71.6,46.4,41,30.20,10.0,South,4.6,-,N/A,,Clear,170,2013-10-08 16:15:00
11:35 AM,71.6,46.4,41,30.20,10.0,SSW,5.8,-,N/A,,Clear,210,2013-10-08 16:35:00
11:55 AM,73.4,46.4,38,30.20,10.0,SSW,4.6,-,N/A,,Clear,200,2013-10-08 16:55:00
12:15 PM,75.2,44.6,34,30.19,10.0,South,5.8,-,N/A,,Clear,180,2013-10-08 17:15:00
12:35 PM,75.2,44.6,34,30.18,10.0,SSW,3.5,-,N/A,,Clear,200,2013-10-08 17:35:00
12:55 PM,75.2,44.6,34,30.17,10.0,SSE,3.5,-,N/A,,Clear,160,2013-10-08 17:55:00
1:15 PM,77.0,42.8,29,30.16,10.0,WSW,3.5,-,N/A,,Clear,240,2013-10-08 18:15:00
1:35 PM,77.0,44.6,32,30.15,10.0,SW,8.1,-,N/A,,Unknown,220,2013-10-08 18:35:00
1:55 PM,75.2,42.8,31,30.15,10.0,Calm,Calm,-,N/A,,Unknown,0,2013-10-08 18:55:00
2:15 PM,77.0,42.8,29,30.14,10.0,West,3.5,-,N/A,,Unknown,270,2013-10-08 19:15:00
2:35 PM,78.8,44.6,30,30.14,10.0,South,6.9,-,N/A,,Clear,170,2013-10-08 19:35:00
3:15 PM,78.8,42.8,28,30.14,10.0,South,8.1,-,N/A,,Clear,180,2013-10-08 20:15:00
4:35 PM,78.8,42.8,28,30.13,10.0,South,3.5,-,N/A,,Clear,170,2013-10-08 21:35:00
4:55 PM,78.8,42.8,28,30.13,10.0,South,6.9,-,N/A,,Clear,180,2013-10-08 21:55:00
5:15 PM,77.0,42.8,29,30.14,10.0,South,6.9,-,N/A,,Clear,170,2013-10-08 22:15:00
5:35 PM,75.2,42.8,31,30.14,10.0,South,6.9,-,N/A,,Clear,170,2013-10-08 22:35:00
5:55 PM,73.4,44.6,36,30.14,10.0,SSE,5.8,-,N/A,,Clear,160,2013-10-08 22:55:00
6:15 PM,71.6,44.6,38,30.14,10.0,SSE,5.8,-,N/A,,Clear,160,2013-10-08 23:15:00
6:35 PM,69.8,44.6,40,30.14,10.0,SSE,4.6,-,N/A,,Clear,150,2013-10-08 23:35:00
6:55 PM,64.4,46.4,52,30.14,10.0,SSE,4.6,-,N/A,,Clear,150,2013-10-08 23:55:00
7:15 PM,62.6,48.2,59,30.15,10.0,SSE,5.8,-,N/A,,Clear,150,2013-10-09 00:15:00
7:35 PM,60.8,48.2,63,30.15,10.0,SE,6.9,-,N/A,,Clear,140,2013-10-09 00:35:00
7:55 PM,62.6,46.4,55,30.16,10.0,SSE,5.8,-,N/A,,Clear,150,2013-10-09 00:55:00
8:15 PM,64.4,46.4,52,30.16,10.0,SSE,5.8,-,N/A,,Clear,160,2013-10-09 01:15:00
8:35 PM,62.6,48.2,59,30.17,10.0,SSE,5.8,-,N/A,,Clear,160,2013-10-09 01:35:00
8:55 PM,62.6,48.2,59,30.17,10.0,SSE,6.9,-,N/A,,Clear,160,2013-10-09 01:55:00
9:15 PM,62.6,48.2,59,30.17,10.0,SSE,8.1,-,N/A,,Clear,160,2013-10-09 02:15:00
9:35 PM,62.6,48.2,59,30.17,10.0,SSE,4.6,-,N/A,,Clear,160,2013-10-09 02:35:00
9:55 PM,60.8,48.2,63,30.18,10.0,SSE,4.6,-,N/A,,Clear,160,2013-10-09 02:55:00
10:15 PM,59.0,48.2,67,30.18,10.0,SSE,5.8,-,N/A,,Clear,150,2013-10-09 03:15:00
10:35 PM,53.6,48.2,82,30.18,10.0,SSE,5.8,-,N/A,,Clear,150,2013-10-09 03:35:00
10:55 PM,53.6,48.2,82,30.18,10.0,SSE,5.8,-,N/A,,Clear,150,2013-10-09 03:55:00
11:15 PM,53.6,48.2,82,30.18,10.0,SSE,4.6,-,N/A,,Clear,150,2013-10-09 04:15:00
11:35 PM,51.8,48.2,88,30.17,10.0,SSE,4.6,-,N/A,,Clear,150,2013-10-09 04:35:00
11:55 PM,51.8,48.2,88,30.17,10.0,SSE,5.8,-,N/A,,Clear,150,2013-10-09 04:55:00